COSMOS 2251 DEB

Satellite information

Favourite Embed

Satellite Type and Status

DEBRISIN ORBIT

Key statistics

Satellite COSMOS 2251 DEB at a glance.

Uptime

11654

Days in orbit

Revolutions

≈ 13.4

Per day

Orbit

LEO

Low Earth Orbit

Inclination

74.0

Latest

Satellite identification and parameters

Extended collection of information and parameters for COSMOS 2251 DEB.

Object identification

Identified? True

Debris? True

Object name: COSMOS 2251 DEB

International designator: 1993-036ACR

Object number (NORAD): 34878

Object ID (CCSDS): 34878

Country: COMMONWEALTH OF INDEPENDENT STATES (CIS)

Current information (Y/N): Y

RCS size: SMALL

Orbital parameters

Period: 107.15 minutes

Inclination: 73.9673 deg

SMA: 7472.876 km

Apoapsis: 1420.844 km

Periapsis: 768.639 km

RAAN: 29.4266 deg

Eccentricy: 0.0436381

Argument of periapsis: 54.8691 deg

Mean anomaly: 8.2291 deg

Mean motion: 13.43912721 rev/day

Mean motion (dot): 0.00001475 rev/day2

B* drag term: 0.001459 1/REarth

Two-line elements (TLE)

Creation date: May 11, 2025, 10:21 p.m.

Reference frame: TEME

Reference center: EARTH

Epoch: May 11, 2025, 1:27 a.m. UTC

TLE line 0: 0 COSMOS 2251 DEB

TLE line 1: 1 34878U 93036ACR 25131.06104461 .00001475 00000-0 14590-2 0 9993

TLE line 2: 2 34878 73.9673 29.4266 0436381 54.8691 8.2291 13.43912721783759

Live tracking on map

Real-time ground track for satellite COSMOS 2251 DEB.

In-orbit conjunctions

A list of the most updated potential collisions computed for object COSMOS 2251 DEB.

Target Orbit TCA Probability of collision Miss distance Type
COSMOS 990 LEO 2024-11-10 07:20:46 0.0002552006 665.0 (m) PAYLOAD
COSMOS 1289 LEO 2024-10-12 00:12:09 0.0003866052 914.0 (m) PAYLOAD

Associated space launch

Military communications satellite. Destroyed in a collision with Iridium 33.

COSMOS 2251 DEB was lifted into orbit during the mission ‘Kosmos-3M | Strela-2M 51’, on board a Kosmos-3M space rocket.

The launch took place on June 16, 1993, 4:17 a.m. from 132/1 (132L).

For more information about the launch, click the button.

Launch to space Kosmos-3M | Strela-2M 51
Kosmos-3M | Strela-2M 51

Agency: N/A

Status: Launch Successful

Launch date: June 16, 1993, 4:17 a.m. UTC

Rocket: Kosmos-3M

Launch pad: 132/1 (132L)

Location: Plesetsk Cosmodrome, Russian Federation

...

Latest news about this satellite

There are no fresh news available about this satellite. Check back as we update our databases every day.


Newsletter sign-up

Weekly statistics, charts and insights to help you stay on top of the space industry.